Location: Joplin, MO
(37.0842°N, 94.5133°W)
Time: 21:07:23
(UTC+02:00)

Transit 2A Rocket - Pass Details

Date: 03 April 2023
Orbit: 584 x 914 km, 66.7° (Epoch: 06 June)

Event Time Altitude Azimuth Distance (km) Brightness Sun altitude
Rises 15:32:29 0° 154° (SSE) 3,205 8.7 17.4°
Reaches altitude 10° 15:36:13 10° 126° (SE) 2,365 8.8 18.1°
Maximum altitude 15:38:32 13° 101° (E) 2,218 10.3 18.6°
Drops below altitude 10° 15:40:56 10° 76° (ENE) 2,460 9.1 19.0°
Sets 15:44:58 0° 50° (NE) 3,466 9.0 19.8°
